[Date Prev][Date Next][Thread Prev][Thread Next][Date Index][Thread Index]
[jamsat-news:1746] jas2info #291
- Date: Fri, 20 Sep 2002 19:14:35 +0900 (JST)
========================   ºÇ¿·¾ðÊó   ==============================
        Last updated ¡¡20Sep2002 ¡¡19:30(JST)   #291
====================================================================
   
£±¡Ë¥¢¥Þ¥Á¥å¥¢ÄÌ¿®±ÒÀ±¾ðÊ󡢣ƣϥ·¥ê¡¼¥º¤Îµ°Æ»Í×ÁÇ¡¢¥Æ¥ì¥á¥È¥ê¡¢£Ñ£Ó£Ï¤Î
¡¡¡¡¡¡¾õ¶·Åù¤ò¤Þ¤È¤á¤Æ¤ß¤Þ¤·¤¿¡¥
¡¡¡¡¡¡
¡¡£Æ£Ï¡Ý£²£¹¤Î£²£°£°£²Ç¯£¹·î£²£°Æü¡Ê¶â¡Ë¤Î£±£¸¡§£³£µ¡Ê£Ê£Ó£Ô¡Ë¤Î¥Ñ¥¹¤Ç¤Ï
£Ê£Á£Ò£Ì¤Î¥Û¡¼¥à¥Ú¡¼¥¸¤Î¤È¤¦¤ê¥¢¥Ê¥í¥°±¿ÍѤǤ·¤¿¡£¡¡º£Æü¤Þ¤Ç¤Î´Ñ¬¤·¤¿
¥Æ¥ì¥á¥È¥ê¡¼¤ÈºÇ½ª¹Ô¤ÎʬÀÏ·ë²Ì¤òÊó¹ð¤·¤Æ¤ª¤¤Þ¤¹¡£
AS30087C  20Sep2002
18:35 15:51(JST)
AOS   MEL  LOS  Elev
358   297  234  23.5
Freq. 435.803-.788Hz
(JAS-2 No.108¡¡B 1790-2540)
HI HI AE 07 88 50 00 D4 AC BA 09 4B A8 49 4E 5E 88 85 91 64 8A 89 8A 8A 81 
HI HI AE 07 88 50 00 D4 AC BA 09 4B A8 51 50 60 87 85 91 8F 8A 89 8A 8A 81 
HI HI AE 07 88 55 00 D4 AC BA 09 4B A9 58 4B 61 87 84 90 91 8A 8A 8A 8A 81 
HI HI AE 07 88 55 00 D4 AC BA 09 4B AA 60 49 62 87 84 90 70 8B 8A 8A 8A 81 
HI HI AE 07 88 55 00 D4 AC BT 19 4B AA 69 4A 62 86 84 90 6A 8B 8A 8A 8A 81 
HI HI AE 07 88 55 00 D4 AC BA 09 4B AA 72 4C 61 86 84 90 7F 7B 8A 8A 8A 81 
HI HI AE 07 88 50 00 D4 AC BA 09 4D A7 7B 4F 60 86 84 8F 70 8B 8A 8A 8A 81 
HI HI AE 07 88 50 00 D4 AC BA 09 4B A6 84 51 5F 86 84 90 73 8B 8A 8A 8A 81 
HI HI AE 07 88 55 00 D4 AC BA 09 4B A2 8D 4F 5F 86 84 8F 82 8B 8A 8A 8A 82 
HI HI AE 07 88 55 00 D4 AC BA 09 4B 8E 95 54 5F 86 83 90 74 8B 8A 8A 8A 81 
HI HI AE 07 87 55 00 D4 AC BA 08 4B 98 9D 55 5B 86 84 90 6F 8B 8A 8A 8A 81 
HI HI AE 07 88 55 00 D4 AC BA 09 4B 91 A4 5A 5B 86 84 90 67 8B 8A 8A 8A 82 
HI HI AE 07 88 55 00 D4 AC BA 09 4B 8A A9 5E 5A 87 84 90 6B 8B 8A 8A 8A 82 
HI HI AE 07 88 55 00 D4 AC BA 09 4B 82 AA 63 55 87 84 90 6D 8B 8A 8A 8A 82 
HI HI AE 07 88 55 00 D4 AC BA 09 4B 79 AF 67 53 88 85 91 68 8B 8A 8A 8A 82 
HI HI AE 07 88 55 00 D4 AC BA 09 4B 70 B0 6D 51 89 86 92 78 8C 8A 8A 8A 82 
HI HI AE 07 88 55 00 D4 AC BA 09 4B 68 AA 71 4E 8A 87 94 7B 8C 8A 8B 8B 82 
HI HI AE 07 88 55 00 D4 AC BA 09 4B 60 AC 76 4D 8C 89 96 8C 8C 8A 8B 8B 82 
HI HI AE 07 88 55 00 D4 AC BA 09 4B 5A A9 78 4C 8F 8B 98 6D 8B 8A 8B 8B 82 
HI HI AE 07 88 55 00 D4 AC BA 09 4B 55 A5 78 4C 93 8D 9B 82 8C 8A 8B 8B 82 
HI HI AE 07 88 55 00 D4 AC BA 09 4B 52 A2 78 4B 93 8F 9C 80 8C 8A 8B 8B 82 
HI HI AE 07 88 55 00 D4 AC BA 09 4B 51 9E 78 4B 93 8F 9C 69 8B 8A 8B 8B 82 
AS30085C  20Sep2002
15:11 15:16(JST)
AOS   MEL  LOS  Elev
 51    82  113   4.0
Freq. 435.797-.792Hz
(JAS-2 No.108¡¡B 1520-1790)
 
HI HI AE 07 88 55 00 D5 AC BA 09 4B 41 84 70 50 92 8D 9B 96 8A 8B 8D 8A 82 
HI HI AE 07 88 55 00 D4 AC BA 09 4B 3F 7F 6E 54 91 8D 9A 87 8A 8B 8D 8A 82
HI HI AE 07 88 55 00 D4 AC HA 09 4B 3D 7A 6B 53 90 8C 99 7D 8A 8B 8D 8A 82 
HI HI AE 07 88 55 00 D4 AC BA 09 4B 3C 75 65 54 8F 8B 98 77 8A 8B 8D 8A 82 
HI HI AE 07 88 55 00 D4 AC BA 09 4B 3B 71 64 55 8E 8A 97 73 8A 8A 8D 8A 82 
HI HI AE 07 88 55 00 D4 AC BA 09 4B 3B 6F 62 57 8D 89 96 67 8A 8A 8D 8A 82 
AS30074C  19Sep2002
19:32 19:41(JST)
AOS   MEL  LOS  Elev
346   307  266   7.9
Freq. 435.799-.791Hz
(JAS-2 No.108¡¡B 1010-1520)
HI HI AE 07 88 55 00 D4 AC BA 09 4B 65 B8 75 4D 95 8D 9B 69 8C 89 88 8B 81 
HI HI AE 07 88 55 00 D4 AC BA 09 4B 66 BA 75 4E 92 8E 9B 6F 8C 89 88 8B 81 
HI HI AE C7 88 55 00 D4 AC BA 09 4B 67 BB 74 4E 92 8E 9B 69 8D 79 89 8B 81 
HI HI AE 07 88 55 00 D4 AC BA 09 4B 68 BB 75 4D 93 8F B0 65 8D 89 89 8B 81 
HI HI AE 07 88 55 00 D4 AC BA 09 4B 6B BB 73 5F 91 8D B0 7B 8D 89 88 8B 81 
HI HI AE 07 88 55 00 D4 AC BA O9 4B 6B BA 71 4F 92 8E B0 80 8D 89 88 8B 81 
HI HI AE 07 88 55 00 D4 AC BA 09 4B 6F B9 6A 53 92 8E 9B 7C 8D 89 88 8B 81 
HI HI AE 07 88 55 00 D4 AC BA 09 4B 72 B7 68 53 90 8D 9A 70 8D 8A 88 8B 81 
HI HI AE 07 88 55 00 D4 AC BA 09 4B 74 B5 6B 52 91 7D 9T 85 8D 8A 88 8B 81 
HI HI AE 07 88 55 00 D4 AC BA 09 4D 76 B3 71 4F 92 8E 9B 7C 8D 8A 88 8B 81 
HI HI AE C7 88 55 00 D4 AC BA 09 4B 77 B1 73 4E 92 7E 9B 82 8D 8A 88 8B 81 
HI HI AE C7 88 55 00 D4 AC BA 09 4B 77 AE 77 4C 93 8F 9C 88 8E 8A 88 8B 82 
HI HI AE 07 88 55 00 D4 AC BA 09 4B 77 AA 
AS30061C  14Sep2002
18:50-19:04(JST)
AOS   MEL  LOS  Elev
357   299  238  20.9
Freq. 435.802-.788Hz
(JAS-2 No.108¡¡B 0-1010)
HI HI AE 07 88 55 00 D4 CD AF 09 43 93 95 74 AD 91 8D 9B 62 8B 89 8A 8B 82 
HI HI AE 07 88 55 00 D4 CD AF 09 43 8C 98 73 4D 92 8E 9B 4C 8B 89 8A 8B 82 
HI HI AE 07 88 55 00 D4 CD AF 09 43 85 99 71 4F 92 8E (B 5B 8B 89 8A 8B 82 
HI HI AE 07 88 55 00 D4 CD AF 09 43 7D 97 70 4E 91 8D 9A 6E 8B 89 8A 8B 82 
HI HI AE 07 88 55 00 D4 CD AE 09 43 76 93 70 52 91 8D 9A 7C 8B 88 8A 8B 82 
HI HI AE 07 88 55 00 D4 CD AE 09 43 6E 8C 71 51 91 8D 9B 6A 8B 88 8A 8B 82 
HI HI AE 07 88 55 00 D4 CD AE 09 43 68 83 72 4D 92 8E 9B 6B 8B 88 8A 8B 81 
HI HI AE 07 88 55 00 D5 CD AF 09 43 64 78 75 4D 92 8E 9B 6E 8B 88 8B 8B 81 
HI HI AE 07 88 55 00 D4 CD AF 09 43 60 6D 77 4B 93 8F 9C 88 8A 88 8B 8B 81 
HI HI AE 07 88 55 00 D4 CD AF 09 43 5F 60 77 4D 94 8F 9C 7D 8A 88 8B 8B 82 
HI HI AE 07 88 55 00 D4 CD AF 09 43 60 54 75 4E 92 8E 9C 83 8A 88 8A 8B 81 
HI HI AE 07 88 55 00 D4 CD AF 09 43 66 42 76 4C 92 8E 9C 5D 8A 88 8A 8B 81 
HI HI AE 07 88 55 00 D4 CD AF 09 43 6A 3B 74 4D 92 8E 9B 7E 8A 88 8A 8B 81 
HI HI AE 07 88 55 00 D4 CD AF 09 43 6F 37 6A 50 91 8D 9A 65 8A 88 8A 8B 81 
HI HI AE 07 88 55 00 D4 CD AF 09 43 74 35 6F 50 90 8D 99 65 8A 88 8A 7B 81  
HI HI AE 07 88 55 00 D4 CD AF 09 43 65 36 6C 52 8F 8C 99 71 7E 87 8A 8B 81  
HI HI AE 07 88 55 00 D UCD AF 09 43 82 44 5E 50 91 8D 9A 68 8A 88 8A 8B 81
     
------------------------¡¡£Æ£Ï-£²£¹¤Îµ°Æ»Í×ÁÇ¡¡------------------------------        
 
¡¡¡¡¢£ µ°Æ»Í×ÁÇ£±¡§¡Öjamsat¡Ýkeps¡§£±£²£´£²¡×¤è¤ê         
¡¡¡¡¡¡¡¡¡¡¡¡¡¡¡¡¡¡¡¡SB KEPS @ AMSAT  $ORB02262.N
¡¡¡¡¡¡¡¡¡¡¡¡¡¡¡¡¡¡¡¡2Line Orbital Elements 02262.AMSAT
HR AMSAT ORBITAL ELEMENTS FOR AMATEUR SATELLITES IN NASA FORMAT
FROM WA5QGD FORT WORTH,TX September 19, 2002
SEND SUBSCRIBE/UNSUBSCRIBE TO majordomo@amsat.org ONLY
BID: ORB02262.N
¡¡DECODE 2-LINE ELSETS WITH THE FOLLOWING KEY:
¡¡1 AAAAAU 00  0  0 BBBBB.BBBBBBBB  .CCCCCCCC  00000-0  00000-0 0  DDDZ
¡¡2 AAAAA EEE.EEEE FFF.FFFF GGGGGGG HHH.HHHH III.IIII JJ.JJJJJJJJKKKKKZ
¡¡KEY: A-CATALOGNUM B-EPOCHTIME C-DECAY D-ELSETNUM E-INCLINATION F-RAAN
¡¡G-ECCENTRICITY H-ARGPERIGEE I-MNANOM J-MNMOTION K-ORBITNUM Z-CHECKSUM
FO-29
1 24278U 96046B   02261.89477592  .00000153  00000-0  19499-3 0 05495
2 24278 098.5216 068.9752 0350072 252.3400 103.9245 13.52851875300660
 ¢£ µ°Æ»Í×ÁÇ£²¡§¡Öjamsat¡Ýkeps¡§£±£²£´£±¡×¤è¤ê¡¡
¡¡¡¡¡¡¡¡¡¡¡¡¡¡SB KEPS @ AMSAT  $ORB02262.O
¡¡¡¡¡¡¡¡¡¡¡¡¡¡Orbital Elements  02262.OSCAR
HR AMSAT ORBITAL ELEMENTS FOR OSCAR SATELLITES
FROM WA5QGD FORT WORTH,TX September 19, 2002
SEND SUBSCRIBE/UNSUBSCRIBE TO majordomo@amsat.org ONLY
BID: ORB02262.O
TO ALL RADIO AMATEURS BT
Satellite: FO-29
Catalog number: 24278
Epoch time:      02261.89477592
Element set:    0549
Inclination:      098.5216 deg
RA of node:       068.9752 deg
Eccentricity:    0.0350072
Arg of perigee:   252.3400 deg
Mean anomaly:     103.9245 deg
Mean motion:   13.52851875 rev/day
Decay rate:       1.53e-06 rev/day^2
Epoch rev:           30066
Checksum:              318
-------------------¡¡¡¡FO-29¡ÊJAS-2)¤Î¥Æ¥ì¥á¥È¥ê¤Ë´Ø¤¹¤ë¾ðÊó¡¡¡¡----------------------¡¡
¡¡
£²¡ËËÜÆü¤Î¥Ï¥à¥Õ¥§¥¢¤Ë¤ª¤±¤ë±ÒÀ±¼õ¿®¼Â±é¶¨Îϡʷ§Ëܤè¤ê¡Ë¤Î¤¿¤á¾åµ£²£°£°£²Ç¯
¡¡£¹·î£²£°Æü¡Ê¶â¡Ë¤Î¥Æ¥ì¥á¥È¥ê¤Î£±£¸:£³£µ¤Î¥Ñ¥¹¤ÎºÇ½ª¹Ô¤òʬÀϤ·¤Æ
¡¡¤ª¤¤Þ¤¹¡£
AS30087C  20Sep2002
18:35 15:51(JST)
AOS   MEL  LOS  Elev
358   297  234  23.5
Freq. 435.803-.788Hz
(JAS-2 No.108¡¡B 1790-2540)
HI HI AE 07 88 55 00 D4 AC BA 09 4B 51 9E 78 4B 93 8F 9C 69 8B 8A 8B 8B 82 
¥Æ¥ì¥á¥È¥ê¡¡  Æâ¡¡ÍÆ¡¡ ¡¡     ´¹»»»»ÃÍ¡¡Ã± °Ì
£³£Ã	¼§µ¤¥»¥ó¥µ¡¼£Ú¼´=	39705.9	[nT]
£³£Ä	¼§µ¤¥»¥ó¥µ£Ø¼´	=	77451.0	[nT]
£´£Á	ÂÀÍÛÅÅÃÓȯÀ¸ÅÅή=	 1176.5	[mA]
£´£Â	£Â½¼ÊüÅÅÅÅή	=	 -530.0	[mA]
£´£Ã	£Âü»ÒÅ۵	=	   15.8	[V]
£´£Ä	£ÂÃæ´Öü»ÒÅ۵	=	    6.9	[V]
£µ£Á	¥Ð¥¹Å۵	=	   15.3	[V]
£µ£Â	£Ê£Ô£ÁÁ÷¿®ÅÅÎÏ	=	  584.4	[mW]
£µ£Ã 	¹½Âβ¹ÅÙ£±	=	   27.9	[¡î]
£µ£Ä	¹½Âβ¹ÅÙ£²	=	   28.3	[¡î]
£¶£Á	¹½Âβ¹ÅÙ£³	=	   27.9	[¡î]
£¶£Â	¹½Âβ¹ÅÙ£´	=	   27.9	[¡î]
£¶£Ã	£Â¥»¥ë²¹ÅÙ	=	   31.4	[¡î]
 ==========================¡¡FO-29¡Ê¤Õ¤¸£³¹æ¡Ë¤Î¥Æ¥ì¥á¥È¥êʬÀÏ¡¢£Ñ£Ó£Ï¾ðÊóÅù¡¡=====================
   
¡¡£³)[jamsat-bb:
 =================================================================================================
¡¡
¡¡£´¡Ë£Ê£Á£Ò£Ì ¤Î¥Û¡¼¥à¥Ú¡¼¥¸¤Ë±¿ÍÑͽÄ꤬µºÜ¤µ¤ì¤Æ¤¤¤Þ¤·¤¿¤Î¤Ç¤´¾Ò²ð¤·¤Þ¤¹¡¥
       ¡Ê http://www.jarl.or.jp/Japanese/3_Fuji/new/uy.htm ¡Ë
       
¡¡¡¡¡¡¡¡¡¡¡¡¡¡¡¡¡ö¡ö¡ö¡¡±¿ÍÑͽÄê¤Ë¤Ä¤¤¤Æ¡¡¡ö¡ö¡ö
¡¡¡¡¡¡£´·î£°£±Æü¡Ê·î¡Ë¡¡¡Á¡¡£¶·î£³£°Æü¡ÊÆü¡Ë¥¢¥Ê¥í¥°·Ï±¿ÍÑ 
¡¡¡¡¡ö¤Ê¤ª¡¤±¿ÍÑͽÄê¤ÏÅÔ¹ç¤Ë¤è¤ê¡¤Êѹ¹¤¹¤ë¤³¤È¤¬¤¢¤ê¤Þ¤¹¤Î¤Ç¡¤¤¢¤é¤«¤¸¤á¤´Î»¾µ´ê¤¤¤Þ¤¹¡£
¡¡¾È²ñÀè¡¡¡§¡¡lab@jarl.or.jp
¡¡ºÇ¿·¤Î¾ðÊó¤Ï¥Æ¥ì¥Û¥ó¥µ¡¼¥Ó¥¹¡Ê£°£³¡Ý£³£¹£´£²¡Ý£±£°£°£°¡Ë¤ò¤ªÊ¹¤¤¯¤À¤µ¤¤¡£¡¡¡¡
¡¡°Ê¸å¤Î±¿ÍѤˤĤ¤Þ¤·¤Æ¤ÏÊ¿À®£±£´Ç¯£··î¾å½Ü¤Ë¤ªÃΤ餻¤¤¤¿¤·¤Þ¤¹¡£¡¡¡¡¡¡¡¡¡¡¡¡¡¡ 
 ¡¡¡¡¡¡¡¡
-----------------------    £Æ£Ï¡Ý£²£°¡ÊJAS-£±£â¡ËÆ»Í×ÁÇ   -------------------------
 ¡¡
 ¡¡¢£ µ°Æ»Í×ÁÇ£± ¡§½Ðŵ¤Ï£Æ£Ï-£²£¹¡Ö¤Õ¤¸£³¹æ¡×¤ËƱ¤¸¡¥
  
FO-20
1 20480U 90013C   02261.97629688  .00000002  00000-0  81135-4 0 04385
2 20480 099.0246 248.5630 0540441 349.6414 009.3905 12.83321769590948
 
 ¡¡¢£ µ°Æ»Í×ÁÇ£² ¡§½Ðŵ¤Ï£Æ£Ï¡Ý£²£¹¡Ö¤Õ¤¸£³¹æ¡×¤ËƱ¤¸¡¥
               
Satellite: FO-20
Catalog number: 20480
Epoch time:      02261.97629688
Element set:    0438
Inclination:      099.0246 deg
RA of node:       248.5630 deg
Eccentricity:    0.0540441
Arg of perigee:   349.6414 deg
Mean anomaly:     009.3905 deg
Mean motion:   12.83321769 rev/day
Decay rate:        2.0e-08 rev/day^2
Epoch rev:           59094
Checksum:              313
--------------------------------------------------------------------------------¡¡
¡¡        ¢£ ¤Õ¤¸£²¹æ¡¿£Æ£Ï¡Ý£²£°/JAS-1£â ¢£  ¡¡   
            
¡¡¡¡¡¡¡¡¡¡¡¡¡¡¡¡¡¡¡¡¡Ö¤Õ¤¸£²¹æ¡×¡¡¸½¶·                                                                                  
             
